Weather History for KCDW - October, 2013

Change the Weather History Date:

Saturday, October 26, 2013

  Actual Average Record
Temperature  
Mean Temperature 42 °F -  
Max Temperature 54 °F 60 °F 77 °F (1963)
Min Temperature 30 °F 38 °F 23 °F (1952)
Degree Days  
Heating Degree Days 23    
Moisture  
Dew Point 28 °F    
Average Humidity 59    
Maximum Humidity 89    
Minimum Humidity 34    
Precipitation  
Precipitation 0.00 in - - ()
Sea Level Pressure  
Sea Level Pressure 30.11 in    
Wind  
Wind Speed 3 mph (SW)    
Max Wind Speed 14 mph    
Max Gust Speed 23 mph    
Visibility 10 miles    
Events      
Averages and records for this station are not official NWS values.
T = Trace of Precipitation, MM = Missing Value Source: NWS Daily Summary

Daily Weather History Graph

Daily Weather History Graph

Search for Another Location

Airport or City:

Trip Planner

Search our weather history database for the weather conditions in past years. The results will help you decide how hot, cold, wet, or windy it might be!

Date:

Astronomy

Oct. 26, 2013 Rise Set
Actual Time 7:21 AM EDT 6:00 PM EDT
Civil Twilight 6:52 AM EDT 6:28 PM EDT
Nautical Twilight 6:20 AM EDT 7:00 PM EDT
Astronomical Twilight 5:48 AM EDT 7:32 PM EDT
Moon No Moon Rise 1:35 PM EDT (10/26)
Length of Visible Light 11h 35m
Length of Day
10h 39m
Waning Gibbous, 53% of the Moon is Illuminated
Oct 26
Waning Gibbous
Oct 26
Last Quarter
Nov 3
New
Nov 10
First Quarter
Nov 17
Full

Hourly Weather History & Observations

Time (EDT) Temp. Windchill Dew Point Humidity Pressure Visibility Wind Dir Wind Speed Gust Speed Precip Events Conditions
12:53 AM 35.1 °F - 30.0 °F 82% 30.26 in 10.0 mi Calm Calm - N/A   Clear
1:53 AM 34.0 °F - 30.0 °F 85% 30.25 in 10.0 mi Calm Calm - N/A   Clear
2:53 AM 32.0 °F - 28.9 °F 88% 30.25 in 10.0 mi Calm Calm - N/A   Clear
3:53 AM 32.0 °F - 28.9 °F 88% 30.23 in 10.0 mi Calm Calm - N/A   Clear
4:53 AM 30.9 °F - 28.0 °F 89% 30.23 in 10.0 mi Calm Calm - N/A   Clear
5:53 AM 30.0 °F - 27.0 °F 88% 30.22 in 10.0 mi Calm Calm - N/A   Clear
6:53 AM 30.0 °F - 27.0 °F 88% 30.22 in 10.0 mi Calm Calm - N/A   Clear
7:53 AM 30.9 °F - 28.0 °F 89% 30.23 in 10.0 mi Calm Calm - N/A   Clear
8:53 AM 39.0 °F - 30.0 °F 70% 30.22 in 10.0 mi Calm Calm - N/A   Clear
9:53 AM 41.0 °F 39.0 °F 30.0 °F 65% 30.20 in 10.0 mi SW 3.5 mph - N/A   Clear
10:53 AM 46.0 °F 42.5 °F 30.0 °F 54% 30.18 in 10.0 mi Variable 6.9 mph - N/A   Clear
11:53 AM 50.0 °F - 27.0 °F 41% 30.15 in 10.0 mi West 10.4 mph - N/A   Clear
12:53 PM 51.1 °F - 26.1 °F 38% 30.12 in 10.0 mi SSW 11.5 mph 20.7 mph N/A   Scattered Clouds
1:53 PM 52.0 °F - 26.1 °F 37% 30.07 in 10.0 mi West 13.8 mph 23.0 mph N/A   Clear
2:53 PM 53.1 °F - 26.1 °F 35% 30.04 in 10.0 mi Variable 5.8 mph 18.4 mph N/A   Clear
3:53 PM 54.0 °F - 26.1 °F 34% 30.02 in 10.0 mi SW 8.1 mph 19.6 mph N/A   Clear
4:53 PM 53.1 °F - 27.0 °F 37% 30.00 in 10.0 mi WSW 10.4 mph 19.6 mph N/A   Clear
5:53 PM 52.0 °F - 28.0 °F 40% 29.96 in 10.0 mi SSW 5.8 mph - N/A   Clear
6:53 PM 50.0 °F - 28.0 °F 43% 29.96 in 10.0 mi Variable 4.6 mph - N/A   Clear
7:53 PM 48.0 °F - 28.0 °F 46% 29.97 in 10.0 mi Calm Calm - N/A   Clear
8:53 PM 48.0 °F - 28.0 °F 46% 29.96 in 10.0 mi SW 4.6 mph - N/A   Overcast
9:53 PM 48.9 °F - 28.9 °F 46% 29.95 in 10.0 mi Variable 4.6 mph - N/A   Overcast
10:53 PM 48.9 °F - 28.9 °F 46% 29.94 in 10.0 mi WSW 5.8 mph - N/A   Overcast
11:53 PM 48.9 °F - 28.9 °F 46% 29.92 in 10.0 mi Variable 3.5 mph - N/A   Overcast